Radiation Dose at Monitoring Post of Fukushima Daini Nuclear Power Station
Date,Time,MP-1(microSv/h),MP-2(microSv/h),MP-3(microSv/h),MP-4(microSv/h),MP-5(microSv/h),MP-6(microSv/h),MP-7(microSv/h),Wind Direction,Wind Velocity(m/s),Rain
2023/04/22,00:00,0.156,0.137,0.219,0.215,0.214,0.121,0.077,north,4.8,No
2023/04/22,00:10,0.154,0.138,0.220,0.217,0.215,0.122,0.078,north,3.5,No
2023/04/22,00:20,0.155,0.137,0.220,0.215,0.213,0.122,0.078,north-northwest,4.5,No
2023/04/22,00:30,0.155,0.138,0.217,0.215,0.215,0.121,0.077,north-northwest,6.5,No
2023/04/22,00:40,0.154,0.138,0.220,0.215,0.213,0.121,0.078,north-northwest,4.9,No
2023/04/22,00:50,0.155,0.137,0.219,0.214,0.214,0.121,0.077,north-northwest,5.0,No
2023/04/22,01:00,0.156,0.139,0.219,0.216,0.214,0.123,0.078,north-northwest,5.2,No
2023/04/22,01:10,0.155,0.138,0.220,0.215,0.213,0.122,0.078,north-northwest,3.0,No
2023/04/22,01:20,0.155,0.138,0.219,0.215,0.215,0.122,0.078,north-northwest,3.4,No
2023/04/22,01:30,0.155,0.138,0.220,0.216,0.214,0.122,0.078,north-northwest,3.4,No
2023/04/22,01:40,0.155,0.139,0.220,0.215,0.214,0.123,0.078,northwest,5.7,No
2023/04/22,01:50,0.154,0.137,0.219,0.216,0.214,0.123,0.078,northwest,4.4,No
2023/04/22,02:00,0.154,0.137,0.220,0.216,0.214,0.122,0.078,northwest,2.7,No
2023/04/22,02:10,0.155,0.138,0.219,0.215,0.212,0.121,0.077,northwest,2.6,No
2023/04/22,02:20,0.155,0.137,0.219,0.215,0.215,0.122,0.078,west-northwest,5.5,No
2023/04/22,02:30,0.155,0.138,0.218,0.216,0.214,0.122,0.077,north-northwest,5.4,No
2023/04/22,02:40,0.156,0.138,0.219,0.216,0.214,0.123,0.078,northwest,4.3,No
2023/04/22,02:50,0.154,0.137,0.220,0.215,0.213,0.122,0.077,north-northwest,2.7,No
2023/04/22,03:00,0.154,0.138,0.219,0.216,0.214,0.122,0.077,northwest,5.4,No
2023/04/22,03:10,0.154,0.138,0.219,0.215,0.215,0.122,0.077,northwest,6.4,No
2023/04/22,03:20,0.154,0.137,0.219,0.215,0.214,0.122,0.077,north-northwest,3.9,No
2023/04/22,03:30,0.156,0.138,0.220,0.216,0.215,0.122,0.078,northwest,6.1,No
2023/04/22,03:40,0.154,0.138,0.219,0.215,0.215,0.122,0.077,north-northwest,5.1,No
2023/04/22,03:50,0.154,0.138,0.219,0.215,0.213,0.122,0.077,northwest,6.1,No
2023/04/22,04:00,0.155,0.138,0.220,0.215,0.213,0.122,0.077,northwest,8.2,No
2023/04/22,04:10,-,-,-,-,-,-,-,-,-,-
2023/04/22,04:20,0.156,0.137,0.219,0.216,0.213,0.121,0.078,northwest,6.2,No
2023/04/22,04:30,0.156,0.139,0.219,0.216,0.213,0.122,0.077,northwest,6.6,No
2023/04/22,04:40,0.154,0.137,0.219,0.215,0.215,0.121,0.077,northwest,7.1,No
2023/04/22,04:50,0.154,0.138,0.220,0.215,0.213,0.122,0.077,northwest,8.9,No
2023/04/22,05:00,0.156,0.137,0.220,0.214,0.215,0.122,0.078,northwest,6.8,No
2023/04/22,05:10,0.155,0.139,0.221,0.215,0.213,0.121,0.078,northwest,6.9,No
2023/04/22,05:20,0.155,0.138,0.219,0.215,0.214,0.122,0.077,northwest,6.5,No
2023/04/22,05:30,0.154,0.138,0.220,0.215,0.213,0.122,0.077,northwest,8.1,No
2023/04/22,05:40,0.156,0.138,0.219,0.216,0.214,0.121,0.078,north-northwest,8.9,No
2023/04/22,05:50,0.155,0.138,0.219,0.216,0.214,0.122,0.078,northwest,8.1,No
2023/04/22,06:00,0.156,0.138,0.219,0.215,0.213,0.121,0.077,north-northwest,8.1,No
2023/04/22,06:10,0.155,0.138,0.218,0.216,0.215,0.122,0.077,north-northwest,7.7,No
2023/04/22,06:20,0.154,0.138,0.220,0.217,0.213,0.122,0.078,north-northwest,6.8,No
2023/04/22,06:30,0.155,0.138,0.219,0.216,0.213,0.121,0.077,northwest,5.6,No
2023/04/22,06:40,0.155,0.139,0.220,0.215,0.214,0.123,0.077,north-northwest,5.0,No
2023/04/22,06:50,0.156,0.137,0.219,0.215,0.213,0.121,0.077,north-northwest,5.9,No
2023/04/22,07:00,0.155,0.138,0.220,0.214,0.214,0.121,0.078,north-northwest,7.8,No
2023/04/22,07:10,0.156,0.138,0.219,0.215,0.214,0.123,0.078,north-northwest,8.6,No
2023/04/22,07:20,0.155,0.138,0.219,0.216,0.213,0.121,0.077,northwest,6.9,No
2023/04/22,07:30,0.155,0.137,0.219,0.214,0.214,0.121,0.077,northwest,8.1,No
2023/04/22,07:40,0.155,0.138,0.219,0.216,0.216,0.121,0.078,northwest,6.1,No
2023/04/22,07:50,0.155,0.138,0.218,0.215,0.212,0.123,0.077,west-northwest,9.5,No
2023/04/22,08:00,0.154,0.138,0.218,0.215,0.215,0.121,0.077,northwest,7.4,No
2023/04/22,08:10,0.154,0.138,0.218,0.214,0.214,0.122,0.078,west-northwest,9.2,No
2023/04/22,08:20,0.156,0.137,0.219,0.215,0.214,0.121,0.077,northwest,7.9,No
2023/04/22,08:30,0.154,0.138,0.219,0.215,0.212,0.122,0.077,northwest,7.2,No
2023/04/22,08:40,0.156,0.137,0.219,0.216,0.213,0.122,0.078,northwest,9.6,No
2023/04/22,08:50,0.154,0.139,0.219,0.214,0.214,0.122,0.077,northwest,8.6,No
2023/04/22,09:00,0.155,0.137,0.219,0.216,0.214,0.121,0.079,north-northwest,8.2,No
2023/04/22,09:10,0.155,0.138,0.219,0.213,0.214,0.123,0.078,northwest,10.6,No
2023/04/22,09:20,0.155,0.138,0.218,0.216,0.214,0.121,0.078,northwest,12.6,No
2023/04/22,09:30,0.155,0.138,0.221,0.215,0.214,0.122,0.078,west-northwest,13.3,No
2023/04/22,09:40,0.155,0.137,0.219,0.216,0.214,0.123,0.077,northwest,8.4,No
2023/04/22,09:50,0.155,0.138,0.218,0.215,0.215,0.121,0.078,northwest,9.2,No
2023/04/22,10:00,0.155,0.138,0.221,0.215,0.214,0.122,0.078,west-northwest,10.9,No
2023/04/22,10:10,0.155,0.138,0.220,0.216,0.214,0.122,0.078,west-northwest,8.6,No
2023/04/22,10:20,0.156,0.139,0.218,0.214,0.214,0.121,0.077,west-northwest,8.8,No
2023/04/22,10:30,0.155,0.136,0.218,0.216,0.212,0.122,0.078,west-northwest,10.3,No
2023/04/22,10:40,0.155,0.138,0.221,0.215,0.215,0.123,0.078,west-northwest,10.1,No
2023/04/22,10:50,0.155,0.137,0.219,0.214,0.213,0.121,0.077,west-northwest,9.2,No
2023/04/22,11:00,0.156,0.139,0.217,0.218,0.213,0.122,0.078,west-northwest,7.3,No
2023/04/22,11:10,0.155,0.138,0.218,0.215,0.216,0.122,0.078,west-northwest,6.5,No
2023/04/22,11:20,0.156,0.137,0.219,0.215,0.214,0.121,0.078,west-northwest,5.8,No
2023/04/22,11:30,0.154,0.138,0.221,0.216,0.213,0.123,0.078,west,6.7,No
2023/04/22,11:40,0.155,0.139,0.220,0.216,0.215,0.122,0.078,west,6.6,No
2023/04/22,11:50,0.155,0.137,0.218,0.214,0.213,0.122,0.078,west-northwest,6.2,No
2023/04/22,12:00,0.155,0.138,0.217,0.216,0.212,0.122,0.077,west-northwest,5.7,No
2023/04/22,12:10,0.155,0.139,0.218,0.217,0.215,0.122,0.078,west,7.9,No
2023/04/22,12:20,0.155,0.138,0.220,0.214,0.213,0.122,0.078,west,5.7,No
2023/04/22,12:30,0.154,0.138,0.221,0.215,0.212,0.122,0.078,west-northwest,8.4,No
2023/04/22,12:40,0.155,0.139,0.219,0.216,0.214,0.121,0.078,west,8.1,No
2023/04/22,12:50,0.153,0.138,0.218,0.216,0.214,0.122,0.078,west-northwest,7.4,No
2023/04/22,13:00,0.155,0.138,0.218,0.215,0.212,0.122,0.078,west-northwest,8.4,No
2023/04/22,13:10,0.155,0.138,0.217,0.218,0.214,0.123,0.078,west,6.4,No
2023/04/22,13:20,0.154,0.138,0.222,0.216,0.215,0.122,0.078,west-northwest,7.1,No
2023/04/22,13:30,0.156,0.139,0.220,0.215,0.214,0.122,0.078,west-northwest,7.0,No
2023/04/22,13:40,0.155,0.137,0.219,0.217,0.213,0.123,0.078,west,6.9,No
2023/04/22,13:50,0.155,0.138,0.218,0.218,0.214,0.123,0.078,west-northwest,6.2,No
2023/04/22,14:00,0.156,0.139,0.218,0.215,0.216,0.122,0.077,west-northwest,8.4,No
2023/04/22,14:10,0.154,0.138,0.219,0.216,0.213,0.122,0.077,west,8.1,No
2023/04/22,14:20,-,-,-,-,-,-,-,-,-,-
2023/04/22,14:30,0.155,0.139,0.221,0.216,0.214,0.123,0.079,west,8.7,No
2023/04/22,14:40,0.155,0.136,0.218,0.215,0.214,0.122,0.079,west,8.2,No
2023/04/22,14:50,0.156,0.139,0.218,0.217,0.212,0.123,0.078,northwest,8.9,No
2023/04/22,15:00,0.154,0.138,0.222,0.216,0.211,0.122,0.077,west,10.9,No
2023/04/22,15:10,0.156,0.138,0.220,0.215,0.216,0.122,0.078,west,8.5,No
2023/04/22,15:20,0.155,0.140,0.220,0.217,0.215,0.122,0.078,west,10.3,No
2023/04/22,15:30,0.155,0.138,0.222,0.217,0.212,0.122,0.078,west-northwest,8.1,No
2023/04/22,15:40,0.156,0.139,0.220,0.218,0.214,0.121,0.077,west-northwest,8.4,No
2023/04/22,15:50,0.155,0.138,0.222,0.217,0.215,0.123,0.078,west-northwest,10.0,No
2023/04/22,16:00,0.156,0.138,0.221,0.218,0.212,0.122,0.077,west,12.3,No
2023/04/22,16:10,0.155,0.139,0.221,0.217,0.214,0.122,0.079,west-northwest,9.3,No
2023/04/22,16:20,0.156,0.138,0.221,0.218,0.216,0.123,0.078,west-northwest,10.1,No
2023/04/22,16:30,0.155,0.139,0.222,0.218,0.213,0.122,0.079,west-northwest,11.1,No
2023/04/22,16:40,0.156,0.139,0.222,0.216,0.214,0.123,0.079,west-northwest,11.1,No
2023/04/22,16:50,0.156,0.138,0.221,0.218,0.215,0.122,0.078,west-northwest,10.4,No
2023/04/22,17:00,0.156,0.139,0.222,0.218,0.215,0.123,0.079,west-northwest,9.3,No
2023/04/22,17:10,0.156,0.139,0.220,0.219,0.214,0.123,0.078,west-northwest,8.9,No
2023/04/22,17:20,0.156,0.140,0.221,0.217,0.216,0.122,0.078,west-northwest,10.7,No
2023/04/22,17:30,0.156,0.139,0.222,0.217,0.215,0.123,0.078,west-northwest,10.6,No
2023/04/22,17:40,0.157,0.138,0.221,0.219,0.216,0.122,0.078,northwest,8.7,No
2023/04/22,17:50,0.156,0.140,0.221,0.216,0.215,0.123,0.078,west-northwest,10.7,No
2023/04/22,18:00,0.156,0.139,0.222,0.218,0.215,0.122,0.078,west-northwest,9.5,No
2023/04/22,18:10,0.156,0.138,0.220,0.217,0.216,0.123,0.078,west-northwest,10.4,No
2023/04/22,18:20,0.156,0.138,0.221,0.218,0.215,0.123,0.078,west-northwest,12.9,No
2023/04/22,18:30,0.156,0.139,0.221,0.218,0.216,0.123,0.078,west-northwest,14.8,No
2023/04/22,18:40,0.155,0.139,0.221,0.217,0.215,0.124,0.079,west-northwest,13.7,No
2023/04/22,18:50,0.156,0.139,0.221,0.217,0.215,0.123,0.079,west-northwest,13.7,No
2023/04/22,19:00,0.157,0.138,0.223,0.218,0.216,0.123,0.078,west-northwest,12.0,No
2023/04/22,19:10,0.156,0.140,0.221,0.218,0.215,0.123,0.078,northwest,12.0,No
2023/04/22,19:20,0.157,0.139,0.221,0.217,0.214,0.123,0.078,west-northwest,10.4,No
2023/04/22,19:30,0.156,0.139,0.222,0.217,0.215,0.122,0.078,northwest,8.6,No
2023/04/22,19:40,0.157,0.138,0.221,0.217,0.214,0.123,0.078,northwest,7.6,No
2023/04/22,19:50,0.157,0.140,0.221,0.217,0.214,0.122,0.078,northwest,6.6,No
2023/04/22,20:00,0.156,0.139,0.222,0.218,0.216,0.123,0.078,northwest,8.4,No
2023/04/22,20:10,0.157,0.139,0.221,0.218,0.215,0.122,0.077,west-northwest,10.9,No
2023/04/22,20:20,0.157,0.139,0.221,0.217,0.215,0.123,0.078,west-northwest,12.6,No
2023/04/22,20:30,0.156,0.138,0.222,0.219,0.215,0.123,0.077,northwest,12.9,No
2023/04/22,20:40,0.157,0.138,0.221,0.217,0.215,0.123,0.078,northwest,10.1,No
2023/04/22,20:50,0.156,0.139,0.221,0.217,0.215,0.123,0.079,northwest,10.6,No
2023/04/22,21:00,0.156,0.139,0.221,0.217,0.216,0.123,0.078,northwest,13.9,No
2023/04/22,21:10,0.156,0.138,0.223,0.218,0.216,0.123,0.078,northwest,9.8,No
2023/04/22,21:20,0.156,0.139,0.221,0.217,0.215,0.123,0.078,north-northwest,8.5,No
2023/04/22,21:30,0.156,0.139,0.222,0.217,0.216,0.121,0.079,north-northwest,8.6,No
2023/04/22,21:40,0.156,0.139,0.223,0.219,0.214,0.124,0.078,north-northwest,10.0,No
2023/04/22,21:50,0.157,0.140,0.222,0.217,0.215,0.123,0.078,north-northwest,7.5,No
2023/04/22,22:00,0.156,0.139,0.222,0.218,0.216,0.123,0.078,northwest,5.9,No
2023/04/22,22:10,0.156,0.139,0.222,0.219,0.216,0.123,0.078,north-northwest,7.3,No
2023/04/22,22:20,0.157,0.138,0.222,0.217,0.216,0.123,0.078,north-northwest,6.2,No
2023/04/22,22:30,0.156,0.139,0.221,0.219,0.216,0.123,0.078,north-northwest,5.1,No
2023/04/22,22:40,0.156,0.140,0.221,0.218,0.215,0.123,0.078,north-northwest,3.4,No
2023/04/22,22:50,0.157,0.139,0.221,0.217,0.215,0.123,0.078,north-northwest,3.5,No
2023/04/22,23:00,0.156,0.138,0.222,0.217,0.216,0.122,0.077,north-northwest,2.7,No
2023/04/22,23:10,0.156,0.139,0.222,0.217,0.216,0.123,0.079,north,2.2,No
2023/04/22,23:20,0.157,0.139,0.222,0.217,0.214,0.123,0.079,north,2.1,No
2023/04/22,23:30,0.156,0.139,0.222,0.217,0.214,0.123,0.078,north-northwest,2.4,No
2023/04/22,23:40,0.156,0.139,0.222,0.218,0.214,0.123,0.078,north-northwest,1.9,No
2023/04/22,23:50,0.155,0.139,0.222,0.218,0.214,0.122,0.078,north-northwest,2.4,No
